Lander, WY

7:13 AM MDT on May 30, 2017 (GMT -0600)
Hunt

Weather History for KLND - November, 2010

Change the Weather History Date:

Thursday, November 25, 2010

  Actual Average Record
Temperature  
Mean Temperature 14 °F 26 °F  
Max Temperature 29 °F 37 °F 67 °F (1949)
Min Temperature -1 °F 15 °F -15 °F (1993)
Degree Days  
Heating Degree Days 51 39  
Month to date heating degree days 741 810  
Since 1 July heating degree days 1294 1671  
Cooling Degree Days 0 0  
Month to date cooling degree days 0 0  
Year to date cooling degree days 452 472  
Moisture  
Dew Point -6 °F    
Average Humidity 43    
Maximum Humidity 65    
Minimum Humidity 21    
Precipitation  
Precipitation 0.00 in 0.03 in 0.56 in (1983)
Month to date precipitation 0.37 0.74  
Year to date precipitation 13.34 11.96  
Snow  
Snow 0.00 in 0.50 in - ()
Month to date snowfall 1.9 10.9  
Since 1 July snowfall 1.9 23.4  
Since 1 September snowfall 1.9 23.4  
Snow Depth 0.00 in    
Sea Level Pressure  
Sea Level Pressure 30.12 in    
Wind  
Wind Speed 4 mph (South)    
Max Wind Speed 15 mph    
Max Gust Speed 18 mph    
Visibility 10 miles    
Events      
T = Trace of Precipitation, MM = Missing Value Source: NWS Daily Summary

Daily Weather History Graph

Daily Weather History Graph

Search for Another Location

Airport or City:

Trip Planner

Search our weather history database for the weather conditions in past years. The results will help you decide how hot, cold, wet, or windy it might be!

Date:

Astronomy

Nov. 25, 2010 Rise Set
Actual Time 7:19 AM MST 4:44 PM MST
Civil Twilight 6:47 AM MST 5:15 PM MST
Nautical Twilight 6:13 AM MST 5:50 PM MST
Astronomical Twilight 5:39 AM MST 6:24 PM MST
Moon 8:46 PM MST (11/25) 10:51 AM MST (11/25)
Length of Visible Light 10h 27m
Length of Day
9h 25m
Waning Gibbous, 82% of the Moon is Illuminated
Nov 25
Waning Gibbous
Nov 28
Last Quarter
Dec 5
New
Dec 13
First Quarter
Dec 21
Full

Hourly Weather History & Observations

Time (MST) Temp. Windchill Dew Point Humidity Pressure Visibility Wind Dir Wind Speed Gust Speed Precip Events Conditions
12:53 AM 5.0 °F -5.6 °F -13.0 °F 43% 29.98 in 10.0 mi SW 5.8 mph - N/A   Clear
1:53 AM -0.9 °F - -11.9 °F 60% 30.01 in 10.0 mi Calm Calm - N/A   Clear
2:53 AM 3.0 °F -4.4 °F -11.9 °F 50% 30.03 in 10.0 mi SW 3.5 mph - N/A   Clear
3:53 AM -0.0 °F -9.9 °F -11.0 °F 60% 30.05 in 10.0 mi SE 4.6 mph - N/A   Clear
4:53 AM -0.0 °F -11.6 °F -9.9 °F 63% 30.09 in 10.0 mi NNW 5.8 mph - N/A   Clear
5:53 AM 3.0 °F -4.4 °F -9.9 °F 55% 30.10 in 10.0 mi NW 3.5 mph - N/A   Clear
6:53 AM 1.0 °F - -9.9 °F 60% 30.12 in 10.0 mi Calm Calm - N/A   Clear
7:53 AM 6.1 °F -0.9 °F -9.0 °F 50% 30.10 in 10.0 mi ESE 3.5 mph - N/A   Clear
8:53 AM 10.9 °F 2.9 °F -5.1 °F 49% 30.10 in 10.0 mi East 4.6 mph - N/A   Clear
9:53 AM 14.0 °F 5.1 °F -4.0 °F 45% 30.11 in 10.0 mi NW 5.8 mph - 0.00 in   Clear
10:53 AM 21.0 °F 16.2 °F -6.0 °F 30% 30.09 in 10.0 mi West 3.5 mph - N/A   Clear
11:53 AM 24.1 °F 18.2 °F -7.1 °F 25% 30.09 in 10.0 mi SW 4.6 mph - N/A   Clear
12:53 PM 27.0 °F 16.7 °F -9.0 °F 21% 30.06 in 10.0 mi SSE 11.5 mph 18.4 mph N/A   Clear
1:53 PM 28.0 °F 19.3 °F -8.0 °F 21% 30.08 in 10.0 mi SE 9.2 mph - N/A   Clear
2:53 PM 28.0 °F 17.5 °F -6.0 °F 23% 30.08 in 10.0 mi South 12.7 mph - N/A   Clear
3:53 PM 27.0 °F 18.7 °F -4.0 °F 26% 30.11 in 10.0 mi SSE 8.1 mph - N/A   Clear
4:53 PM 23.0 °F 15.8 °F -4.0 °F 31% 30.16 in 10.0 mi South 5.8 mph - N/A   Clear
5:53 PM 19.9 °F 13.4 °F -2.0 °F 38% 30.19 in 10.0 mi West 4.6 mph - N/A   Clear
6:53 PM 19.9 °F - -2.0 °F 38% 30.22 in 10.0 mi Calm Calm - N/A   Clear
7:53 PM 18.0 °F 12.7 °F 1.0 °F 48% 30.23 in 10.0 mi South 3.5 mph - N/A   Clear
8:53 PM 19.0 °F - 1.0 °F 46% 30.22 in 10.0 mi Calm Calm - N/A   Clear
9:53 PM 18.0 °F - 1.9 °F 50% 30.21 in 10.0 mi Calm Calm - N/A   Clear
10:53 PM 17.1 °F - 1.9 °F 52% 30.19 in 10.0 mi Calm Calm - N/A   Clear
11:53 PM 16.0 °F 7.4 °F 1.9 °F 54% 30.20 in 10.0 mi East 5.8 mph - N/A   Clear